Voltar ao catálogo

YINHE-1

AtivoComunicaçõesPO
NORAD 45024·PAYLOAD·🇨🇳 China

Lançado Jan 16, 2020 de Jiuquan Satellite Launch Center

Loading…

Próximas Passagens (próximas 24 horas)

TLE

AtualizadoSource: Space-Track

Época: Sep 14, 2026, 21:46 UTC

1 45024U 20004A   26257.90712703  .00000270  00000-0  32675-4 0  9998
2 45024  86.3874  75.1788 0015468  51.8860 308.3753 14.79215574359181

Acompanhe YINHE-1 em tempo real com AllMySat

Download on the App Store